Pinedale, WY

4:49 AM MST on February 24, 2017 (GMT -0700)
Wenz

Weather History for KPNA - August, 2012

Change the Weather History Date:

Wednesday, August 8, 2012

  Actual Average (KBPI) Record (KBPI)
Temperature  
Mean Temperature 64 °F -  
Max Temperature 87 °F 79 °F 93 °F (2001)
Min Temperature 41 °F 42 °F 29 °F (1976)
Degree Days  
Heating Degree Days 1    
Growing Degree Days 14 (Base 50)    
Moisture  
Dew Point 32 °F    
Average Humidity 38    
Maximum Humidity 76    
Minimum Humidity 11    
Precipitation  
Precipitation 0.00 in - - ()
Sea Level Pressure  
Sea Level Pressure 30.41 in    
Wind  
Wind Speed 5 mph (NW)    
Max Wind Speed 9 mph    
Max Gust Speed -    
Visibility 10 miles    
Events      
Averages and records for this station are not official NWS values.
T = Trace of Precipitation, MM = Missing Value Source: NWS Daily Summary

Daily Weather History Graph

Daily Weather History Graph

Search for Another Location

Airport or City:

Trip Planner

Search our weather history database for the weather conditions in past years. The results will help you decide how hot, cold, wet, or windy it might be!

Date:

Astronomy

Aug. 08, 2012 Rise Set
Actual Time 6:18 AM MDT 8:30 PM MDT
Civil Twilight 5:47 AM MDT 9:01 PM MDT
Nautical Twilight 5:08 AM MDT 9:39 PM MDT
Astronomical Twilight 4:26 AM MDT 10:21 PM MDT
Moon 11:34 PM MDT (8/8) 1:18 PM MDT (8/8)
Length of Visible Light 15h 14m
Length of Day
14h 11m
Waning Gibbous, 60% of the Moon is Illuminated
Aug 8
Waning Gibbous
Aug 9
Last Quarter
Aug 17
New
Aug 24
First Quarter
Aug 31
Full

Hourly Weather History & Observations

Time (MDT) Temp. Windchill Dew Point Humidity Pressure Visibility Wind Dir Wind Speed Gust Speed Precip Events Conditions
12:15 AM 48.2 °F - 35.6 °F 62% 30.43 in 10.0 mi WNW 5.8 mph - N/A   Clear
12:35 AM 50.0 °F - 35.6 °F 58% 30.42 in 10.0 mi WNW 6.9 mph - N/A   Clear
12:55 AM 46.4 °F 42.9 °F 35.6 °F 66% 30.43 in 10.0 mi WNW 6.9 mph - N/A   Clear
1:15 AM 50.0 °F - 35.6 °F 58% 30.43 in 10.0 mi NW 5.8 mph - N/A   Clear
1:35 AM 46.4 °F - 35.6 °F 66% 30.43 in 10.0 mi Calm Calm - N/A   Clear
1:55 AM 44.6 °F 41.4 °F 35.6 °F 71% 30.43 in 10.0 mi WNW 5.8 mph - N/A   Clear
2:15 AM 46.4 °F 44.3 °F 33.8 °F 62% 30.43 in 10.0 mi WNW 4.6 mph - N/A   Clear
2:35 AM 44.6 °F 43.1 °F 35.6 °F 71% 30.43 in 10.0 mi NW 3.5 mph - N/A   Clear
2:55 AM 46.4 °F 42.4 °F 35.6 °F 66% 30.43 in 10.0 mi WNW 8.1 mph - N/A   Clear
3:15 AM 44.6 °F 41.4 °F 35.6 °F 71% 30.43 in 10.0 mi West 5.8 mph - N/A   Clear
3:35 AM 42.8 °F 38.0 °F 33.8 °F 70% 30.43 in 10.0 mi West 8.1 mph - N/A   Clear
3:55 AM 44.6 °F 40.2 °F 33.8 °F 66% 30.43 in 10.0 mi West 8.1 mph - N/A   Clear
4:15 AM 42.8 °F 37.5 °F 33.8 °F 70% 30.43 in 10.0 mi WNW 9.2 mph - N/A   Clear
4:35 AM 44.6 °F 40.7 °F 32.0 °F 61% 30.43 in 10.0 mi West 6.9 mph - N/A   Clear
4:55 AM 42.8 °F 38.0 °F 33.8 °F 70% 30.44 in 10.0 mi NW 8.1 mph - N/A   Clear
5:15 AM 44.6 °F 40.2 °F 32.0 °F 61% 30.44 in 10.0 mi WNW 8.1 mph - N/A   Clear
5:35 AM 42.8 °F 40.1 °F 33.8 °F 70% 30.45 in 10.0 mi WNW 4.6 mph - N/A   Clear
5:55 AM 41.0 °F 37.1 °F 32.0 °F 70% 30.45 in 10.0 mi WNW 5.8 mph - N/A   Clear
6:15 AM 41.0 °F 37.1 °F 32.0 °F 70% 30.45 in 10.0 mi WNW 5.8 mph - N/A   Clear
6:35 AM 41.0 °F 38.0 °F 33.8 °F 76% 30.46 in 10.0 mi WNW 4.6 mph - N/A   Clear
6:55 AM 42.8 °F 39.3 °F 33.8 °F 70% 30.47 in 10.0 mi NW 5.8 mph - N/A   Clear
7:15 AM 44.6 °F 40.7 °F 33.8 °F 66% 30.47 in 10.0 mi WNW 6.9 mph - N/A   Clear
7:35 AM 44.6 °F 42.2 °F 35.6 °F 71% 30.47 in 10.0 mi West 4.6 mph - N/A   Clear
7:55 AM 50.0 °F - 35.6 °F 58% 30.47 in 10.0 mi WNW 6.9 mph - N/A   Clear
8:15 AM 51.8 °F - 33.8 °F 50% 30.48 in 10.0 mi WNW 9.2 mph - N/A   Clear
8:35 AM 55.4 °F - 35.6 °F 47% 30.48 in 10.0 mi WNW 6.9 mph - N/A   Clear
8:55 AM 59.0 °F - 37.4 °F 45% 30.47 in 10.0 mi WNW 6.9 mph - N/A   Clear
9:15 AM 60.8 °F - 37.4 °F 42% 30.47 in 10.0 mi WNW 5.8 mph - N/A   Clear
9:35 AM 66.2 °F - 37.4 °F 35% 30.47 in 10.0 mi WNW 6.9 mph - N/A   Clear
10:15 AM 71.6 °F - 33.8 °F 25% 30.47 in 10.0 mi Calm Calm - N/A   Clear
10:35 AM 73.4 °F - 32.0 °F 22% 30.46 in 10.0 mi Calm Calm - N/A   Clear
10:55 AM 77.0 °F - 28.4 °F 17% 30.46 in 10.0 mi ESE 3.5 mph - N/A   Clear
11:15 AM 78.8 °F - 26.6 °F 15% 30.46 in 10.0 mi East 5.8 mph - N/A   Clear
11:35 AM 80.6 °F - 28.4 °F 15% 30.45 in 10.0 mi ENE 3.5 mph - N/A   Clear
11:55 AM 78.8 °F - 28.4 °F 16% 30.45 in 10.0 mi Calm Calm - N/A   Clear
12:15 PM 82.4 °F - 28.4 °F 14% 30.44 in 10.0 mi ENE 3.5 mph - N/A   Clear
12:35 PM 80.6 °F - 26.6 °F 14% 30.43 in 10.0 mi Calm Calm - N/A   Clear
12:55 PM 84.2 °F - 28.4 °F 13% 30.43 in 10.0 mi ENE 6.9 mph - N/A   Clear
1:15 PM 82.4 °F - 26.6 °F 13% 30.43 in 10.0 mi Calm Calm - N/A   Clear
1:35 PM 86.0 °F - 26.6 °F 12% 30.42 in 10.0 mi South 4.6 mph - N/A   Clear
1:55 PM 84.2 °F - 26.6 °F 12% 30.41 in 10.0 mi East 6.9 mph - N/A   Clear
2:15 PM 86.0 °F - 26.6 °F 12% 30.40 in 10.0 mi East 6.9 mph - N/A   Clear
2:35 PM 87.8 °F - 26.6 °F 11% 30.40 in 10.0 mi Calm Calm - N/A   Clear
2:55 PM 86.0 °F - 26.6 °F 12% 30.40 in 10.0 mi Calm Calm - N/A   Clear
3:15 PM 86.0 °F - 26.6 °F 12% 30.39 in 10.0 mi WNW 3.5 mph - N/A   Clear
3:35 PM 86.0 °F - 26.6 °F 12% 30.38 in 10.0 mi WSW 3.5 mph - N/A   Clear
3:55 PM 86.0 °F - 26.6 °F 12% 30.37 in 10.0 mi North 5.8 mph - N/A   Clear
4:35 PM 87.8 °F - 28.4 °F 12% 30.36 in 10.0 mi Calm Calm - N/A   Clear
4:55 PM 86.0 °F - 26.6 °F 12% 30.35 in 10.0 mi NNE 3.5 mph - N/A   Clear
5:15 PM 87.8 °F - 26.6 °F 11% 30.35 in 10.0 mi NE 6.9 mph - N/A   Clear
5:35 PM 86.0 °F - 26.6 °F 12% 30.35 in 10.0 mi Calm Calm - N/A   Clear
5:55 PM 86.0 °F - 26.6 °F 12% 30.34 in 10.0 mi ESE 4.6 mph - N/A   Clear
6:15 PM 86.0 °F - 26.6 °F 12% 30.34 in 10.0 mi East 5.8 mph - N/A   Clear
6:35 PM 86.0 °F - 26.6 °F 12% 30.34 in 10.0 mi ENE 5.8 mph - N/A   Clear
6:55 PM 82.4 °F - 24.8 °F 12% 30.33 in 10.0 mi ENE 5.8 mph - N/A   Clear
7:15 PM 80.6 °F - 28.4 °F 15% 30.34 in 10.0 mi North 4.6 mph - N/A   Clear
7:35 PM 80.6 °F - 30.2 °F 16% 30.34 in 10.0 mi Calm Calm - N/A   Clear
8:15 PM 75.2 °F - 32.0 °F 21% 30.35 in 10.0 mi North 3.5 mph - N/A   Clear
8:35 PM 71.6 °F - 35.6 °F 27% 30.35 in 10.0 mi Calm Calm - N/A   Clear
8:55 PM 68.0 °F - 35.6 °F 30% 30.35 in 10.0 mi NW 4.6 mph - N/A   Clear
9:15 PM 66.2 °F - 37.4 °F 35% 30.35 in 10.0 mi West 3.5 mph - N/A   Clear
9:35 PM 64.4 °F - 37.4 °F 37% 30.36 in 10.0 mi WNW 4.6 mph - N/A   Clear
9:55 PM 68.0 °F - 37.4 °F 33% 30.36 in 10.0 mi Calm Calm - N/A   Clear
10:15 PM 68.0 °F - 37.4 °F 33% 30.36 in 10.0 mi North 4.6 mph - N/A   Clear
10:55 PM 66.2 °F - 35.6 °F 32% 30.36 in 10.0 mi ENE 5.8 mph - N/A   Scattered Clouds
11:15 PM 62.6 °F - 35.6 °F 37% 30.36 in 10.0 mi SSW 3.5 mph - N/A   Scattered Clouds
11:35 PM 64.4 °F - 33.8 °F 32% 30.37 in 10.0 mi WNW 9.2 mph - N/A   Scattered Clouds
11:55 PM 64.4 °F - 33.8 °F 32% 30.36 in 10.0 mi Calm Calm - N/A   Clear